www.pogodaiklimat.ru

Погода и климат >> Архив погоды >> Парагвай >> San Pedro


ПОГОДА в San Pedro

  • Прогноз погоды в San Pedro
  • Монитор погоды в San Pedro
  • Климат города

АРХИВ ПОГОДЫ в San Pedro

Время (UTC), дата Ветер
(напр.,м/с)
 
Видим.   Явления Облачность Т
(С)
Тd
(С)
f
(%)
Тe
(С)
Тes
(С)
Комфортность P
(гПа)
Po
(гПа)
Тmin
(С)
Tmax
(С)
R
(мм)
R24
(мм)
S
(см)
15 8.12 В 4 20 км ясно +27.6 +12.8 40 +29 +43 жарко 1013.9 1004.7
18 8.12 В 4 20 км ясно +30.0 +10.8 30 +30 +41 жарко 1010.8 1001.6
21 8.12 штиль 0 20 км ясно +30.4 +12.6 34 +31 +35 жарко 1009.2 1000.0
00 9.12 штиль 0 20 км ясно +26.0 +18.0 61 +30 +30 душно 1009.0 999.7 +30.4
06 9.12 штиль 0 10 км дымка ясно +22.0 +20.4 91 +28 +28 душно 1008.6 999.2
09 9.12 штиль 0 10 км дымка ясно +21.6 +20.6 94 +27 +27 душно 1009.6 1000.2
12 9.12 СВ 4 20 км ясно +24.8 +17.1 62 +29 +34 душно 1011.2 1001.9 +19.6
15 9.12 С 6 20 км ясно +28.0 +18.7 57 +33 +41 очень
душно
1010.0 1000.8
18 9.12 С 4 20 км ясно +32.2 +17.7 42 +36 +47 очень
душно
1008.5 999.4
21 9.12 штиль 0 20 км ясно +32.0 +18.0 43 +36 +40 очень
душно
1007.4 998.3
03 10.12 штиль 0 20 км ясно +24.0 +20.9 83 +30 +30 очень
душно
1008.7 999.4
06 10.12 штиль 0 20 км ясно +23.6 +21.2 86 +30 +30 очень
душно
1010.7 1001.0
09 10.12 штиль 0 10 км дымка ясно +23.0 +21.4 91 +31 +31 очень
душно
1011.4 1002.0
12 10.12 СВ 4 20 км 6/0 2000 м
[Ac und]
+26.8 +17.7 57 +31 +34 душно 1012.3 1003.0 +23.0
15 10.12 С 6 20 км ясно +33.8 +18.9 41 +39 +47 очень
душно
1011.2 1002.1
18 10.12 штиль 0 20 км ясно +35.0 +20.0 42 +41 +64 опасность
перегрева
1010.4 1001.4
21 10.12 штиль 0 20 км 5/5 1000 м
[Sc]
+35.4 +19.9 40 +41 +43 опасность
перегрева
1007.7 998.7
00 11.12 штиль 0 20 км ясно +28.0 +20.4 63 +34 +34 очень
душно
1008.5 999.3 +35.6
03 11.12 штиль 0 20 км ясно +25.4 +20.3 73 +31 +31 очень
душно
1009.4 1000.1
06 11.12 штиль 0 20 км ясно +24.0 +20.9 83 +30 +30 очень
душно
1008.8 999.5
09 11.12 штиль 0 20 км ясно +23.4 +21.1 87 +31 +31 очень
душно
1008.8 999.4
12 11.12 СВ 1 20 км ясно +30.4 +22.6 63 +40 +50 очень
душно
1010.3 1001.1 +23.2
15 11.12 С 6 20 км 4/4 1000 м
[Cu med, cong]
+34.2 +22.3 50 +43 +48 опасность
перегрева
1009.8 1000.8
18 11.12 С 5 20 км 6/6 900 м
[Cu med, cong]
+35.6 +21.5 44 +43 +47 опасность
перегрева
1008.6 999.6
21 11.12 С 3 20 км 5/4 1000 м
[Cu med, cong Ac cuf]
+35.2 +21.6 45 +43 +44 опасность
перегрева
1007.9 998.9
00 12.12 С 3 20 км ясно +27.0 +19.3 63 +33 +33 очень
душно
1007.3 998.2 +36.0
03 12.12 С 2 20 км ясно +25.0 +20.6 77 +31 +31 очень
душно
1006.4 997.2
09 12.12 С 1 20 км 6/0
[Cs]
+23.0 +18.5 76 +29 +29 очень
душно
1008.8 999.5
12 12.12 С 2 20 км 6/0
[Cs]
+29.0 +21.6 64 +37 +44 очень
душно
1010.5 1001.4 +23.0
15 12.12 СЗ 3 20 км 6/3 1000 м
[Cu hum Cs]
+34.0 +20.6 46 +41 +52 опасность
перегрева
1009.7 1000.7
21 12.12 С 1 20 км гроза без осадков 10/3 1200 м
[Cb cap As trans]
+33.0 +22.9 55 +43 +44 опасность
перегрева
1008.5 999.5
00 13.12 СВ 3 20 км зарница 10/10 600 м
[Cb cap]
+23.0 +19.9 83 +30 +30 очень
душно
1009.2 1000.1 +36.2 3
03 13.12 СЗ 1 20 км 3/1 1000 м
[Cu hum Cs]
+22.6 +20.1 86 +29 +29 очень
душно
1009.2 1000.1
06 13.12 СВ 1 20 км 6/1 900 м
[Cu hum Cs]
+22.6 +20.2 86 +29 +29 очень
душно
1009.7 1000.5
09 13.12 СВ 1 20 км 6/1 1000 м
[Cu hum Cs]
+22.4 +20.2 87 +29 +29 очень
душно
1010.4 1001.2
12 13.12 СВ 2 20 км 6/0
[Cs]
+27.6 +20.2 64 +34 +42 очень
душно
1009.7 1000.6 +22.0 3
18 13.12 С 3 20 км 6/5 1000 м
[Cu med, cong Cs]
+37.2 +22.6 43 +46 +53 опасность
перегрева
1004.9 995.9
21 13.12 С 5 20 км в посл. час дождь 8/8 1000 м
[Cu med, cong]
+32.0 +19.9 49 +38 +39 очень
душно
1003.9 994.9 1
00 14.12 С 1 20 км 1/0
[Ci fib]
+27.4 +22.4 74 +36 +36 очень
душно
1004.0 994.9 +37.2
09 14.12 С 2 20 км 6/1 1000 м
[Cu hum Cs]
+26.8 +19.7 65 +33 +33 очень
душно
1004.9 995.8
12 14.12 С 3 20 км 6/0
[Cs]
+30.0 +21.0 59 +38 +44 очень
душно
1005.3 996.3 +26.4 1
15 14.12 С 3 20 км 6/4 1000 м
[Cu med, cong Cs]
+33.0 +21.1 50 +41 +50 опасность
перегрева
1004.2 995.2
18 14.12 С 3 20 км 8/6 1000 м
[Cu med, cong Cs]
+36.0 +21.3 43 +44 +49 опасность
перегрева
1003.0 994.0

 

Местоположение метеостанции San Pedro (Парагвай): широта -24.06 долгота -57.08 высота над уровнем моря 80 м.

В архиве по умолчанию представлена погода в San Pedro за последнюю неделю. Архивные данные за месяц целиком и за предыдущие месяцы, начиная с января 2011 года, Вы можете получить, выбрав интересующий диапазон дат из раскрывающегося списка и нажав кнопку "Ввод!".


*Определитесь, кто Вы:
робот инопланетянин человек

Внимание! Время в таблицах - всемирное. Для получения местного времени необходимо прибавить поправку, которая в San Pedro равна -4 ч.

Смотрите также архив погоды в соседних городах и на ближайших метеорологических станциях:

Погода в Concepcion (Парагвай) (76 км)
Погода в San Estanislao (Парагвай) (93 км)
Погода в Asuncion (Парагвай) (139 км)
Погода в Coronel Oviedo (Парагвай) (171 км)
Погода в Paraguari (Парагвай) (175 км)
Погода в Gral. Bruguez (Парагвай) (194 км)
Погода в Villarrica (Парагвай) (199 км)
Погода в Pozo Colorado (Парагвай) (200 км)
Погода в Sete Quedas (Бразилия) (210 км)
Погода в Puerto Casado (Парагвай) (213 км)

Пояснения к столбцам:

Ветер - указаны скорость ветра в м/с - средняя за 10 мин, порывы в срок и между сроками (в фигурных скобках) и направление, откуда дует ветер: С - северный, СВ - северо-восточный, В - восточный, ЮВ - юго-восточный, Ю - южный, ЮЗ - юго-западный, З - западный, СЗ - северо-западный.
Видимость - горизонтальная дальность видимости в метрах или километрах. При видимости от 1 до 10 км при отсутствии осадков обычно наблюдается дымка, при ухудшении видимости до 1 км и менее - туман. В сухую погоду видимость может ухудшаться дымом, пылью или мглою.
Явления - указаны атмосферные явления, наблюдавшиеся в срок или в последний час перед сроком; фигурными скобками обозначены явления, наблюдавшиеся между сроками (за 1-3 часа до срока); квадратными скобками обозначены град или гололедные отложения с указанием их диаметра в мм.
Облачность - указаны через наклонную черту общая и нижняя облачность в баллах и высота нижней границы облаков в метрах; квадратными скобками обозначены формы облаков: Ci - перистые, Cs - перисто-слоистые, Cc - перисто-кучевые, Ac - высококучевые, As - высокослоистые, Sc - слоисто-кучевые, Ns - слоисто-дождевые, Cu - кучевые, Cb - кучево-дождевые. Подробнее классификацию облаков см. в Атласе облаков (PDF).
T - Температура воздуха - температура, измеренная на высоте 2 м над землей.
Td - Температура точки росы - температура, при понижении до которой содержащийся в воздухе водяной пар достигнет насыщения.
f - Относительная влажность воздуха - влажноcть воздуха, измеренная на высоте 2 м над землей.
Te - Эффективная температура - температура, которую ощущает одетый по сезону человек в тени. Характеристика душности погоды. При расчете учитывается влияние влажности воздуха и скорости ветра на теплоощущения человека.
Tes - Эффективная температура на солнце - температура, которую ощущает человек, с поправкой на солнечный нагрев. Характеристика знойности погоды. Зависит от высоты солнца над горизонтом, облачности и скорости ветра. Ночью, в пасмурную погоду, а также при ветре 12 м/с и более поправка равна нулю.
P - Атмосферное давление - приведенное к уровню моря атмосферное давление.
Po - Атмосферное давление - измеренное на уровне метеостанции атмосферное давление.
Tmin - Минимальная температура - минимум температуры воздуха на высоте 2 м над землей.
Tmax - Максимальная температура - максимум температуры воздуха на высоте 2 м над землей.
R - Количество осадков - Количество выпавших осадков за период времени, мм. При наведении курсора мыши на число - период времени, за который выпало указанное количество осадков.
R24 - Количество осадков - Количество выпавших осадков за 24 часа, мм.
S - Снежный покров - Высота снежного покрова, см. При наведении курсора мыши на число - состояние снежного покрова и степень покрытия местности в баллах.